Wind_Speed
8 8 8 7 7 8 3 1 2 1 2 4 3 3 4 6 8 9 9 7 5 2 3 7 7 9 9 8 10 9 10 3 1 2 2 6 16 16 13 16 18 18 18 20 20 20 22 25 28 29 28 27 28 28 28 30 32 32 31 29 29 27 26 25 24 23 21 21 20 19 19 19 19 19 19 18 18 17 16 15 14 13 13 13 12 12 12 12 12 11 10 10 9 9 9 9 9
10 9 8 6 7 6 1 1 2 2 3 5 3 3 5 7 10 11 9 7 6 6 9 11 11 12 13 11 8 9 11 8 4 4 5 16 20 14 16 18 19 19 19 20 21 22 23 24 28 29 29 29 29 29 28 29 31 31 31 29 28 27 26 25 23 22 21 20 19 19 19 19 19 18 18 17 17 16 15 15 14 13 12 12 12 12 12 11 11 10 10 9 9 9 8 8 8
10 9 8 6 4 3 1 2 2 2 4 4 3 4 7 10 12 13 12 11 10 10 12 11 10 8 10 10 6 7 6 6 9 8 8 19 17 14 20 19 20 20 20 22 22 23 24 25 27 28 30 30 30 30 29 29 30 30 29 28 28 27 26 25 24 23 21 20 20 20 19 19 19 18 18 17 16 16 15 15 14 13 12 12 12 12 12 11 10 9 9 8 8 7 7 7 7
10 8 8 7 2 1 1 3 2 3 4 3 3 5 10 13 14 14 13 13 11 11 10 8 7 4 9 14 6 6 7 5 8 7 8 14 17 22 23 21 21 20 21 23 23 23 23 25 27 28 30 30 30 31 30 29 29 28 28 27 27 26 25 25 24 23 21 21 21 20 19 19 19 18 18 17 16 15 14 14 13 13 13 12 12 12 11 10 10 9 8 7 7 6 5 6 6
10 8 10 8 0 1 1 2 1 4 4 3 3 6 10 13 14 13 12 13 10 10 10 7 7 6 10 10 3 3 6 6 7 8 9 14 23 27 24 24 22 21 23 23 24 23 23 25 27 29 29 29 29 29 29 28 28 27 27 26 26 25 24 24 23 21 20 20 20 20 19 19 18 18 17 16 16 15 15 14 13 13 13 12 12 11 10 9 8 8 7 7 6 5 4 5 6
10 7 8 7 2 1 1 3 3 4 4 4 5 6 11 13 14 15 13 12 11 11 12 10 9 9 8 6 4 4 6 7 8 9 14 21 25 26 25 24 22 23 25 25 25 23 24 25 27 29 29 29 27 27 27 26 27 27 26 26 25 24 23 23 21 20 20 20 20 19 19 19 18 17 16 16 16 16 15 15 14 13 13 12 11 11 9 9 8 7 7 6 5 5 4 4 5
9 5 4 3 2 0 3 3 3 3 3 6 8 10 13 13 14 16 14 13 13 12 13 10 10 12 8 4 5 6 9 9 10 14 20 25 25 25 24 22 23 25 26 26 25 24 25 25 27 28 29 29 28 27 26 26 26 26 25 24 23 22 21 21 20 19 19 19 19 19 18 18 17 16 16 17 16 15 15 15 14 13 12 11 10 9 8 8 8 7 6 5 5 4 3 3 4
7 3 2 3 2 2 4 4 3 2 4 7 9 11 13 14 13 13 12 11 9 8 10 9 10 13 7 4 5 7 12 11 14 21 26 26 25 24 22 22 24 26 26 27 26 25 25 25 26 27 28 28 28 27 25 25 24 23 23 22 21 20 20 19 18 18 18 18 18 18 18 17 16 16 16 16 15 15 14 13 12 11 10 9 8 8 7 7 7 6 5 4 3 2 1 2 3
6 2 0 3 2 3 3 2 2 1 4 7 8 10 12 13 12 13 13 10 9 8 10 6 6 13 7 7 8 5 11 16 22 26 28 27 25 24 21 23 26 26 27 27 26 25 24 25 25 26 27 26 26 25 24 24 22 22 21 20 20 19 19 18 18 18 18 18 17 17 16 16 15 15 15 14 14 14 13 12 11 10 9 8 7 6 6 5 5 4 3 3 1 1 0 2 3
4 3 1 2 2 4 3 1 3 4 6 8 10 12 13 13 13 14 13 12 11 9 10 6 7 14 11 10 7 4 12 21 25 24 27 27 24 23 22 23 26 27 28 27 27 25 24 24 24 24 24 24 24 23 23 22 21 21 20 20 20 19 19 18 17 17 17 16 16 16 15 15 14 13 13 13 13 12 12 11 10 9 9 7 6 5 4 3 3 2 1 0 1 1 1 2 4
1 1 1 3 3 4 4 3 5 6 9 10 12 14 14 15 14 13 14 12 11 12 11 9 11 15 12 8 4 8 18 22 22 23 25 24 22 23 22 22 25 28 28 28 27 25 24 23 22 22 23 23 23 22 22 21 21 21 19 19 19 19 19 18 17 16 16 15 14 15 14 14 13 13 13 12 12 11 11 10 9 8 7 5 4 3 2 2 2 2 2 2 2 3 3 3 4
1 2 3 3 2 3 4 4 6 7 9 11 10 11 13 16 15 14 16 14 13 15 10 5 10 11 10 7 4 12 20 19 20 23 23 22 22 23 21 22 25 27 28 27 26 25 23 22 21 21 22 22 22 22 21 21 20 19 18 18 18 18 17 17 17 16 15 14 14 14 14 14 14 14 13 12 11 10 9 8 7 6 4 4 3 2 2 2 3 4 4 4 4 4 4 4 4
1 1 4 2 0 1 2 4 6 6 6 7 8 10 13 15 16 15 16 16 14 12 8 9 11 8 9 7 6 12 16 18 20 23 23 22 22 22 21 21 25 27 27 27 26 25 23 23 22 21 21 21 20 20 20 19 18 18 17 17 17 17 16 16 16 16 14 14 14 13 13 13 13 13 13 12 11 11 9 8 7 5 4 3 4 3 4 4 4 5 5 5 5 5 4 4 5
3 3 4 1 1 1 1 3 5 6 5 6 8 10 11 11 15 16 15 15 12 11 12 14 13 8 9 8 7 7 13 21 23 24 24 23 23 23 22 22 25 26 25 26 26 25 24 23 22 22 21 20 19 19 18 18 17 17 16 16 16 16 16 15 15 14 12 12 12 12 12 12 12 12 12 11 11 10 10 9 7 6 5 4 4 5 5 6 6 6 6 6 5 5 5 5 5
5 1 4 3 1 2 1 3 5 7 6 7 9 11 11 10 15 15 14 13 9 13 15 13 11 8 8 9 8 8 17 26 25 25 25 24 24 23 23 23 24 24 25 25 25 24 23 22 22 21 20 20 19 19 18 18 17 17 16 15 14 14 15 14 13 13 11 11 10 10 10 10 11 11 10 10 9 9 8 8 7 7 6 6 6 6 6 6 7 7 8 8 7 7 6 7 7
4 3 4 2 3 1 2 3 4 6 6 7 11 13 13 11 13 12 11 13 11 14 12 9 7 7 10 8 10 17 25 29 26 27 26 25 25 23 24 23 22 23 23 24 24 24 23 23 22 21 21 20 20 20 19 19 17 17 16 15 14 14 14 14 13 12 11 10 9 9 9 9 9 9 9 9 9 9 8 8 8 7 7 7 7 8 8 8 8 8 9 10 9 9 8 9 9
3 4 3 2 4 4 3 3 3 5 7 11 14 14 14 10 8 9 11 15 16 13 8 7 6 9 13 11 18 27 29 28 27 28 26 25 24 22 22 22 22 21 22 23 23 23 23 23 23 22 22 22 21 20 20 19 18 17 17 16 15 14 13 13 12 11 11 9 9 8 8 8 8 8 8 8 9 9 9 8 8 8 8 8 8 9 9 9 9 9 10 11 12 12 11 11 10
3 3 4 4 4 5 4 5 5 6 8 11 13 12 13 11 8 10 12 13 14 12 9 11 11 11 16 21 28 30 29 29 26 26 24 22 21 19 19 20 21 20 21 22 22 23 23 23 23 23 23 23 22 21 21 20 18 17 17 17 15 15 13 13 12 11 10 9 8 8 8 7 7 7 7 8 9 10 10 9 9 9 9 10 10 10 10 10 9 9 10 10 11 12 12 10 9
3 4 4 6 6 6 6 8 8 8 9 11 13 12 12 13 12 11 12 13 14 14 11 13 14 14 17 23 30 30 29 27 25 26 23 21 20 18 18 19 20 20 21 22 22 23 23 23 23 23 24 23 23 22 21 20 19 18 18 17 16 15 13 12 13 11 10 8 7 7 6 6 6 7 7 8 8 9 10 10 10 10 10 11 11 11 10 10 9 8 8 8 9 10 10 9 8
2 5 3 5 8 7 6 11 10 8 12 13 12 11 11 12 10 10 14 16 15 16 14 14 15 16 16 17 25 29 27 25 26 26 22 21 21 20 19 19 20 21 22 22 22 23 23 23 23 23 24 23 23 22 21 21 20 19 19 17 16 15 14 12 12 11 9 8 7 6 6 7 7 7 7 8 7 8 9 9 10 10 11 11 11 10 10 10 9 8 7 7 8 9 9 9 8
2 5 4 5 12 9 8 12 10 10 13 12 10 9 10 11 11 13 17 15 11 14 17 20 20 19 18 16 20 25 23 23 24 23 21 21 20 20 21 21 22 22 22 22 23 23 23 24 24 23 23 23 23 22 21 21 20 20 19 17 16 16 15 13 12 10 9 9 8 7 7 7 8 7 8 8 7 8 8 9 10 10 11 12 10 10 10 10 8 8 8 8 8 9 9 10 9
4 2 6 9 12 11 12 13 11 13 13 12 11 9 8 11 13 15 19 14 9 12 16 21 21 19 20 20 20 22 22 21 21 22 21 21 21 21 22 22 22 22 22 23 24 23 23 23 23 23 23 23 22 22 21 21 20 19 19 18 17 16 15 14 13 12 10 10 10 9 9 9 9 9 8 8 8 8 8 9 9 10 11 11 10 10 10 10 9 8 9 9 10 10 11 12 10
3 0 6 8 10 11 11 12 12 13 14 12 10 7 8 13 11 10 14 13 11 13 16 19 19 20 23 22 20 19 18 18 20 22 22 22 22 22 23 23 23 23 23 24 25 22 21 22 22 22 22 22 21 21 20 21 21 19 18 18 18 17 16 15 14 13 12 12 12 11 11 10 10 10 9 9 9 9 9 9 9 10 10 10 10 11 11 10 10 10 10 11 11 12 12 12 11
4 4 9 10 11 11 9 11 12 13 14 10 9 9 10 12 8 7 10 13 15 16 16 17 18 21 22 19 17 17 17 18 20 24 26 26 26 26 26 26 26 26 24 25 25 23 22 21 21 22 22 21 20 20 20 21 21 20 19 18 18 17 16 16 15 15 14 13 13 13 12 12 12 11 11 10 10 11 10 9 9 10 11 11 12 12 12 12 11 11 11 11 12 12 12 12 11
4 6 10 10 9 10 12 14 14 13 11 10 13 12 10 10 9 10 13 16 17 17 16 17 17 18 17 16 16 16 16 18 21 24 25 27 27 28 27 27 28 27 26 27 27 24 23 21 21 21 21 21 20 20 20 20 20 20 20 19 18 18 18 16 15 16 15 14 14 14 14 13 13 12 12 12 12 12 11 10 10 10 11 12 13 13 12 12 12 11 11 11 11 11 12 12 11
5 8 9 9 10 15 18 16 16 14 10 11 15 12 10 11 12 11 14 18 18 17 17 16 16 15 14 14 15 14 14 16 20 22 23 26 27 26 25 26 29 30 30 29 28 27 24 23 21 20 21 20 20 20 20 19 19 20 20 19 18 17 17 16 16 17 16 16 15 15 15 15 15 14 13 13 14 13 12 12 12 11 11 12 13 13 12 13 12 11 11 11 10 11 11 12 13
5 10 10 11 13 16 19 15 15 14 11 15 16 12 10 9 10 8 11 17 18 18 17 16 16 15 14 14 13 14 14 16 21 22 22 24 24 25 25 25 28 30 30 29 29 29 26 24 23 21 21 20 20 20 19 18 17 18 18 17 17 16 16 15 16 16 16 15 15 14 14 15 15 15 14 14 14 14 13 13 13 12 11 11 12 13 13 13 12 12 12 10 9 10 12 13 14
8 12 10 11 14 15 18 17 14 12 9 14 17 12 7 6 8 11 13 17 18 18 17 16 15 13 14 14 13 11 13 17 22 21 20 21 23 25 26 26 28 28 30 31 30 29 28 26 24 22 22 21 20 19 19 17 16 16 16 16 17 16 16 15 15 15 15 14 14 13 13 13 14 15 15 15 15 15 14 14 13 12 12 11 11 12 13 13 12 12 11 10 11 14 16 15 14
9 13 10 10 13 13 16 15 13 12 8 13 17 10 5 6 9 14 15 15 17 18 16 14 13 12 12 13 11 9 13 18 20 21 22 24 27 28 28 30 30 29 31 33 31 30 29 28 26 23 22 22 21 20 19 18 17 15 15 16 16 16 17 16 15 14 14 13 13 12 13 13 13 14 15 15 15 14 14 14 14 14 13 12 11 11 13 12 11 12 11 12 16 17 16 15 14
8 9 8 9 10 9 12 12 13 14 11 15 14 5 2 6 11 14 14 15 16 15 14 12 10 10 10 10 9 7 12 15 16 22 25 26 30 30 30 32 32 31 31 31 31 30 29 28 26 23 22 22 21 20 21 20 18 16 15 15 14 15 16 17 16 14 13 12 12 12 12 12 12 13 14 14 14 14 14 14 15 14 13 12 11 11 12 11 12 13 13 14 16 15 14 14 14
7 6 5 6 7 6 9 11 14 13 10 13 12 4 5 7 12 14 14 16 16 13 12 11 10 10 9 9 9 6 9 13 15 22 25 26 31 32 31 31 31 32 31 30 31 31 30 28 26 24 23 23 22 21 21 20 19 16 15 14 14 15 15 16 16 14 13 12 12 12 12 12 12 12 13 14 14 15 15 15 14 13 11 10 10 10 12 13 14 14 13 14 14 13 13 14 14
3 6 3 3 5 4 6 10 16 14 9 9 11 6 6 8 13 14 14 15 15 13 11 11 11 11 10 8 9 6 6 12 16 21 23 23 28 31 31 30 30 32 32 32 31 30 30 28 27 25 23 23 23 21 19 18 18 16 15 15 15 15 15 16 15 13 14 14 14 14 13 13 12 13 13 15 16 16 15 14 13 12 10 11 11 11 12 13 13 14 14 13 13 12 13 13 13
1 4 5 4 5 4 4 7 13 19 12 7 9 8 5 8 12 13 14 15 14 13 12 12 12 12 11 8 8 7 5 9 12 18 24 22 25 28 29 31 32 32 32 32 31 30 29 28 26 25 25 24 23 22 18 16 16 16 16 15 14 14 15 16 14 12 13 13 14 15 14 14 12 12 13 15 16 15 13 12 11 10 10 10 10 10 11 12 12 13 13 12 11 12 13 13 13
0 3 4 4 6 6 5 6 10 19 16 8 8 10 8 9 13 13 14 15 14 13 12 13 12 10 10 8 8 7 7 8 8 15 23 24 24 25 25 28 31 32 32 32 30 29 29 28 27 25 25 24 23 21 18 16 16 16 17 16 14 13 13 15 13 11 11 12 12 12 14 13 11 12 12 13 13 12 9 8 7 6 6 6 7 8 9 9 9 10 11 10 9 11 12 13 14
5 4 4 4 5 7 8 7 10 16 15 10 10 10 9 11 13 13 13 15 14 13 12 12 12 11 10 9 8 8 9 9 9 16 25 27 27 26 24 25 28 31 32 31 30 29 29 28 27 25 24 24 22 19 18 17 16 16 17 16 15 14 13 13 12 12 12 11 10 11 13 12 10 10 10 9 8 7 5 4 4 4 5 6 6 8 8 8 8 8 9 9 8 8 9 10 12
9 8 7 6 7 7 8 8 11 14 13 11 13 12 12 14 14 13 13 14 14 13 11 11 12 12 10 10 8 9 10 9 11 18 25 27 28 28 27 26 27 30 31 31 30 29 29 28 27 25 23 24 22 19 19 19 17 16 16 16 16 15 14 13 13 13 13 12 12 11 12 10 8 7 6 5 4 3 2 3 4 4 5 6 7 8 8 9 9 10 10 9 9 9 9 10 10
7 7 7 7 8 7 8 10 12 12 12 10 14 15 16 17 16 15 14 14 14 14 12 11 12 12 11 10 10 11 10 9 12 18 23 26 28 28 28 27 26 27 29 30 28 28 28 27 26 24 23 23 22 21 21 21 19 18 17 16 16 15 14 13 13 13 13 12 12 11 9 8 6 4 3 2 2 2 2 4 5 6 7 7 9 9 9 10 10 11 12 11 11 11 12 11 10
7 7 7 7 7 8 8 9 11 11 9 7 13 16 16 17 16 15 15 15 15 16 15 13 15 14 11 12 13 13 9 7 11 14 19 24 25 26 27 26 27 26 27 29 28 27 28 27 26 24 23 23 23 23 23 23 22 20 19 17 16 14 12 12 12 12 11 10 9 9 8 7 4 1 1 1 2 3 5 6 7 8 9 9 10 10 10 10 10 10 11 12 12 11 13 13 11
7 6 6 6 5 4 4 5 10 10 7 7 13 15 14 16 16 15 17 17 14 16 17 16 17 15 12 13 13 12 9 9 11 12 16 21 23 25 26 26 27 28 28 29 29 28 28 27 27 25 24 25 24 23 23 23 22 21 18 15 13 11 10 10 11 9 8 8 8 9 8 5 3 2 1 2 2 4 4 4 5 6 6 6 7 7 8 8 8 8 8 10 11 11 11 10 9
6 5 4 5 5 6 4 5 10 7 6 11 14 11 10 11 12 14 17 17 13 15 17 16 17 17 16 16 15 14 13 12 13 12 13 19 22 24 25 26 27 28 28 28 28 28 28 27 26 26 27 25 24 22 22 21 20 18 16 13 11 10 9 10 11 10 9 8 8 7 6 5 4 3 2 2 2 2 1 0 2 3 2 3 4 4 5 5 6 6 5 6 7 9 9 8 7
6 7 6 4 6 10 9 6 7 3 5 13 12 6 5 9 11 12 12 13 13 14 15 14 15 16 16 15 15 16 16 15 15 14 13 15 19 22 25 26 26 27 28 29 29 29 28 27 26 26 27 26 24 23 20 18 18 17 15 14 12 10 8 8 8 9 8 8 7 7 6 6 6 4 3 3 2 3 3 1 2 1 2 2 3 4 3 3 5 6 5 4 3 5 6 6 7
5 7 9 8 9 13 10 7 7 5 3 10 12 7 4 6 10 12 10 11 12 12 15 15 14 13 13 13 14 15 15 15 15 14 14 15 19 22 24 26 25 26 28 29 30 30 29 28 26 26 27 25 24 23 20 18 18 17 16 16 14 11 10 11 12 12 11 10 9 9 9 8 8 6 4 2 0 0 1 2 0 2 0 0 1 2 2 2 5 6 5 5 4 4 4 6 7
6 7 10 11 10 11 12 11 8 5 5 11 13 9 4 4 8 12 11 12 13 12 15 15 13 13 13 13 13 14 13 13 13 14 14 15 19 21 22 26 27 27 28 29 29 29 29 28 28 28 27 25 24 23 21 20 19 17 16 17 15 13 13 13 12 11 10 10 10 9 9 8 7 4 2 1 2 2 2 2 1 3 2 1 2 1 2 3 3 4 4 4 4 4 4 5 6
7 7 9 10 8 13 16 14 10 6 4 7 7 4 5 5 9 10 10 12 14 13 14 15 14 14 15 14 14 15 15 14 13 14 14 15 19 22 23 26 29 29 29 30 29 30 30 29 29 29 28 26 25 23 22 21 20 19 18 17 14 13 13 12 10 8 6 7 7 6 5 5 4 2 1 2 3 3 3 2 3 4 3 1 1 1 1 2 3 3 3 3 3 3 3 4 5
9 7 9 8 7 13 16 14 11 5 6 5 6 3 5 4 5 5 8 11 14 16 17 17 16 16 16 16 16 16 16 16 15 15 15 16 20 24 26 28 29 30 30 31 31 31 31 30 29 29 28 27 26 24 23 21 20 20 19 17 15 12 11 11 10 8 7 7 7 6 5 6 5 2 2 3 3 3 4 5 5 4 3 1 1 1 1 1 2 2 2 3 3 3 3 3 3
9 7 6 3 3 8 12 11 8 5 5 7 9 5 4 3 3 5 7 9 13 15 17 17 17 17 17 16 16 16 15 14 15 15 15 19 24 27 29 29 30 30 32 33 32 31 31 31 30 30 29 28 27 25 23 22 21 21 20 19 16 13 12 12 11 9 9 9 8 7 6 7 5 3 3 4 3 2 4 6 4 3 2 0 0 1 2 1 2 2 2 2 2 3 2 1 1
8 6 5 3 3 4 6 3 4 5 3 7 13 13 7 2 4 5 8 13 17 16 14 14 15 16 17 15 15 15 14 12 13 14 15 20 26 28 29 29 30 31 32 33 32 32 32 32 31 31 30 29 28 26 24 23 23 22 21 20 17 15 15 14 13 11 10 10 9 7 7 7 6 4 4 4 3 2 4 5 2 1 0 2 2 3 4 3 3 3 2 2 1 2 2 2 2
6 2 2 4 3 3 3 4 2 4 5 6 14 16 10 5 5 7 12 18 19 17 16 18 18 18 17 14 14 15 14 13 13 13 14 16 20 23 27 28 30 31 32 32 33 33 32 32 32 32 31 30 29 27 26 25 25 24 22 20 18 16 17 16 14 11 10 10 10 9 9 8 6 5 4 3 3 3 4 2 1 2 3 3 3 4 5 5 5 3 3 5 3 2 2 3 2
6 2 5 3 2 1 1 1 2 5 5 6 11 14 9 7 7 12 18 20 17 16 18 21 22 20 17 14 14 14 13 14 14 13 13 14 14 19 24 27 28 30 32 33 34 33 33 33 34 33 33 32 31 29 28 27 27 26 22 20 18 18 18 17 14 12 11 11 11 11 10 9 6 5 5 4 3 4 2 4 5 5 4 4 4 5 5 5 5 4 4 6 6 4 3 3 3
6 5 4 5 3 1 3 3 2 2 5 6 7 9 6 5 6 12 21 22 20 19 18 20 20 19 18 17 16 15 14 15 14 13 14 14 15 19 25 27 28 30 33 34 34 34 34 34 35 35 35 34 32 31 31 29 28 26 23 21 20 19 19 17 14 13 13 12 12 12 11 9 7 7 6 5 4 4 5 6 5 4 4 5 6 6 6 7 6 5 5 6 6 5 4 4 5
5 5 6 5 5 4 4 4 3 3 4 5 3 4 4 4 5 11 20 22 20 17 12 13 16 17 17 16 14 15 15 15 14 14 16 15 18 23 27 28 30 32 34 35 35 35 35 35 36 37 36 35 35 34 34 32 29 26 24 23 22 21 19 16 15 14 14 13 13 13 11 9 9 8 8 7 6 6 6 5 5 5 5 6 6 6 7 7 7 6 6 5 6 6 6 6 7
5 4 6 4 6 6 2 4 5 4 2 3 3 3 4 5 5 6 11 14 13 11 9 12 15 15 14 12 13 14 14 14 14 14 15 15 19 25 27 28 30 32 35 36 36 37 37 36 37 38 37 37 37 37 36 33 30 27 26 26 24 22 20 17 16 15 14 14 13 12 11 10 10 9 9 8 6 6 6 6 7 6 5 5 5 6 7 8 8 8 8 7 7 6 7 7 8
4 3 5 5 6 8 3 2 2 3 2 4 2 2 4 2 5 5 3 6 8 11 12 14 15 15 15 14 14 14 13 14 14 14 15 15 18 23 27 29 30 32 35 37 39 40 41 40 39 38 38 38 39 38 37 34 32 29 28 27 25 23 21 18 17 16 15 14 13 12 11 10 10 9 9 9 8 7 7 7 7 6 5 5 6 6 7 9 10 10 10 9 8 8 8 9 9
5 5 7 4 2 4 4 2 2 4 1 5 3 3 4 1 4 4 5 7 9 12 14 14 13 15 16 15 15 16 16 16 16 16 16 15 18 23 27 29 32 35 38 40 42 43 43 42 42 40 39 40 41 40 38 35 33 31 30 29 26 24 22 19 17 16 16 15 14 13 12 11 11 10 10 10 9 8 7 7 7 7 6 7 7 7 7 7 8 9 10 10 10 10 10 10 10
6 5 6 5 4 2 1 3 2 1 2 3 4 5 3 3 5 3 3 9 11 12 14 13 14 15 16 15 16 18 17 14 14 14 13 13 16 22 27 29 33 36 39 41 42 42 42 42 43 43 43 43 43 41 38 37 34 33 33 30 27 25 22 19 18 16 16 16 15 15 14 12 11 11 11 10 10 9 9 8 8 7 6 6 6 7 7 7 8 9 10 10 11 12 12 11 11
3 4 3 3 4 5 3 4 5 4 3 3 4 5 4 5 5 5 9 12 13 14 13 13 15 17 16 15 15 16 15 14 13 13 13 14 17 24 30 32 34 37 39 39 39 39 41 41 41 41 42 42 42 41 38 37 35 34 33 31 28 25 22 20 19 17 17 18 17 17 15 13 11 11 12 11 11 11 11 10 9 8 7 7 5 5 6 8 10 12 12 13 14 13 13 13 13
4 4 4 3 1 3 2 2 3 4 4 3 3 4 5 5 4 7 10 10 11 14 14 13 15 16 16 15 15 15 14 14 14 14 14 14 17 25 31 34 35 36 35 35 36 38 40 39 39 40 40 41 41 41 38 37 36 35 33 31 29 26 23 21 21 19 18 18 18 17 14 12 12 12 12 13 13 13 12 12 11 11 10 9 8 8 8 9 12 13 14 15 15 15 15 15 14
7 6 6 6 4 4 3 3 2 3 5 5 5 4 6 5 4 7 8 8 8 12 14 13 13 15 16 14 15 15 14 15 15 15 15 14 15 22 28 30 30 30 30 33 35 36 36 36 37 38 39 41 42 40 38 37 37 36 34 32 30 27 24 23 22 20 19 19 18 16 14 13 13 13 13 15 15 14 13 14 14 13 12 12 12 12 12 12 13 15 15 15 15 15 16 16 16
Wind_Direction
192 189 189 184 160 137 125 109 69 8 78 62 52 62 77 106 117 112 102 105 90 53 63 76 91 94 96 112 123 86 45 34 235 142 117 137 143 142 141 146 148 141 133 124 121 121 118 121 121 121 122 121 120 120 123 125 129 132 131 134 136 136 136 137 138 137 136 134 134 134 134 134 133 133 131 129 129 128 127 126 126 126 125 123 119 115 113 110 106 103 100 97 95 93 94 91 88
196 196 197 189 164 151 165 142 88 6 63 62 50 72 72 87 97 95 92 91 93 98 88 87 87 91 106 118 115 77 47 24 78 92 88 131 137 143 148 147 146 139 133 128 127 126 123 124 121 121 124 125 125 126 128 129 130 131 131 135 137 136 137 138 139 139 138 137 136 135 135 136 137 139 138 137 137 135 134 132 132 132 129 125 121 117 114 109 105 102 101 98 96 92 93 92 91
201 204 195 177 167 197 296 61 87 53 76 78 55 62 77 86 96 99 101 98 104 108 96 96 89 91 111 98 52 60 64 34 81 88 107 134 139 153 153 149 147 139 135 133 130 129 128 128 126 127 131 133 132 132 133 132 132 132 132 134 136 136 137 138 138 137 137 136 136 135 136 138 140 143 143 144 143 140 139 139 139 136 131 127 123 119 115 111 108 107 105 102 98 95 95 89 89
199 202 191 175 137 219 47 58 155 107 87 103 85 87 93 96 105 109 111 107 107 105 99 101 78 50 86 93 78 72 91 68 85 100 127 145 148 153 153 151 148 142 141 137 133 132 131 132 134 135 135 135 135 134 135 135 134 132 133 135 135 135 136 136 136 136 137 137 137 137 138 139 141 143 144 143 142 141 141 141 140 137 132 129 125 121 118 116 116 114 110 107 104 99 99 87 88
198 198 194 194 144 120 124 80 149 100 104 137 114 101 100 103 108 108 107 107 106 101 100 101 89 77 78 92 120 88 105 109 111 116 128 148 148 149 152 150 148 147 146 141 137 136 135 136 138 138 136 135 136 136 136 137 135 135 136 136 136 136 136 137 138 139 140 140 140 140 140 140 140 141 142 141 142 142 143 142 139 136 132 130 128 125 125 127 125 117 111 110 109 104 98 84 88
198 196 193 203 262 240 91 63 72 94 136 132 117 109 107 108 103 99 94 91 85 85 90 87 99 101 77 61 58 106 142 126 129 135 138 145 147 149 149 148 149 151 150 144 141 139 139 141 141 140 138 137 137 138 138 138 137 137 138 138 138 138 139 141 142 144 144 144 142 141 140 141 141 140 142 141 143 144 144 142 139 137 134 134 134 134 135 136 133 124 115 107 102 94 81 72 80
187 174 173 191 286 347 87 97 99 96 117 110 118 119 115 111 107 104 98 93 83 84 89 88 108 99 79 83 75 102 126 124 133 144 145 145 147 149 146 147 151 153 152 148 145 142 143 145 145 143 141 140 139 141 141 140 140 139 139 140 140 141 142 144 146 147 147 147 144 142 142 142 142 143 144 144 144 145 143 141 139 138 138 142 144 146 145 141 137 130 123 112 99 82 58 43 52
191 173 157 125 25 41 92 106 115 127 108 108 121 121 119 118 114 106 100 99 96 97 95 102 112 88 66 91 94 98 107 119 133 141 145 145 149 149 146 149 152 154 154 151 147 145 146 148 147 147 146 143 142 143 145 143 141 140 141 142 143 144 144 146 148 149 150 149 147 145 145 144 145 146 145 145 145 145 143 140 139 140 143 147 151 151 148 145 144 140 134 126 112 100 67 3 2
204 211 357 89 60 41 71 68 62 80 100 107 108 107 111 111 104 101 99 93 98 100 99 124 112 92 92 90 93 95 98 121 132 139 146 146 150 149 150 153 153 154 155 153 150 148 149 149 149 149 148 146 145 145 146 145 143 142 143 144 145 146 147 148 149 150 150 149 149 147 147 146 147 147 145 145 146 145 143 143 143 146 151 154 161 162 159 157 155 159 152 137 117 117 287 314 321
201 200 160 76 85 61 60 62 60 67 92 102 99 103 105 104 101 102 104 101 105 92 88 96 90 105 119 102 95 107 117 131 134 139 147 148 151 150 152 156 155 155 156 155 153 152 151 152 151 150 148 147 149 148 148 146 144 145 145 146 147 149 150 151 150 149 149 149 151 150 148 147 148 148 148 149 149 150 149 150 152 156 162 168 176 174 168 170 173 188 205 222 309 308 305 308 309
241 270 119 67 71 98 115 104 92 93 102 102 102 107 107 109 105 101 101 100 100 99 106 95 92 111 113 101 90 119 131 138 138 143 151 151 152 152 151 154 158 157 156 156 155 154 153 155 154 152 150 150 152 151 150 148 148 147 147 148 149 151 153 153 151 149 149 150 151 151 150 150 152 152 153 156 156 157 158 158 161 167 174 180 191 191 176 188 228 260 286 290 297 302 306 307 303
325 339 64 73 63 121 142 110 106 112 110 110 115 117 115 114 109 112 112 110 114 119 138 123 114 122 104 100 112 127 138 147 148 151 154 153 153 152 149 153 160 159 157 156 156 156 156 158 157 156 155 155 155 153 152 151 151 151 151 153 153 153 153 153 152 151 150 151 153 153 156 157 158 159 161 162 164 165 166 167 170 180 192 197 212 239 243 247 268 282 292 293 296 301 306 306 300
181 141 78 79 18 115 152 117 124 119 106 115 125 125 120 118 120 128 125 128 135 131 134 125 133 133 107 115 134 139 150 159 157 154 154 152 151 151 150 155 160 160 159 159 158 158 160 161 161 161 161 160 159 156 155 155 156 156 157 158 157 156 154 155 156 155 154 155 158 159 162 164 165 166 169 169 171 171 172 177 182 195 215 220 225 253 278 287 287 292 299 297 297 299 298 294 288
180 151 108 126 340 339 196 121 125 113 113 133 134 130 120 121 132 136 135 136 136 130 130 133 136 115 112 132 142 160 160 162 161 156 155 150 149 150 152 157 160 161 160 161 161 161 163 164 164 165 165 163 162 160 160 161 163 162 161 162 161 158 157 158 159 159 159 158 161 164 167 170 173 174 177 179 180 180 180 183 186 199 224 240 238 250 270 286 292 297 302 298 292 284 278 276 273
177 122 94 126 83 355 296 151 130 115 133 151 138 130 121 127 139 139 141 134 121 132 133 140 141 116 146 162 155 170 157 159 163 158 156 150 150 151 152 156 159 162 163 164 164 165 166 166 167 168 168 167 166 166 166 167 167 166 165 165 165 164 164 162 161 161 162 162 163 166 172 178 181 183 185 187 190 193 194 196 196 201 218 236 246 256 265 273 279 287 294 291 284 276 274 273 270
147 87 72 114 158 173 266 189 133 120 141 134 119 119 119 134 144 138 138 126 125 145 140 152 167 137 158 166 149 156 154 158 161 157 155 150 149 148 149 154 158 163 165 167 168 168 169 169 171 172 173 172 172 172 171 172 171 169 169 170 171 172 170 166 166 166 164 166 169 171 176 183 186 188 193 198 202 205 210 215 219 220 223 231 243 254 264 270 272 278 284 283 282 284 287 281 275
101 100 103 148 173 185 209 174 155 138 133 119 118 124 127 140 142 119 122 127 135 147 138 138 140 125 140 149 148 151 154 157 154 151 148 144 144 143 145 151 157 162 167 170 170 171 173 174 176 176 177 177 176 176 176 176 174 173 174 176 178 177 174 171 173 173 171 172 175 180 184 188 189 191 199 205 211 218 222 225 230 236 238 243 252 255 258 263 267 272 277 279 282 287 290 285 282
114 134 154 175 196 195 177 164 171 141 124 120 126 136 135 137 131 113 120 129 130 126 118 118 112 114 131 142 149 150 153 154 149 146 143 140 141 141 145 151 158 164 169 172 173 175 178 179 179 180 181 180 180 180 180 179 178 179 180 182 184 184 181 180 182 181 180 180 181 188 192 196 199 201 210 214 219 225 228 233 236 240 245 252 260 263 261 261 265 269 274 277 277 279 284 286 288
149 165 165 191 197 187 167 158 161 143 132 132 135 139 136 134 130 129 131 131 125 117 116 117 115 122 132 141 147 150 153 151 147 145 143 143 145 145 148 155 161 166 170 174 177 181 183 182 183 183 183 183 183 183 184 183 183 186 186 187 189 189 189 189 191 190 188 190 192 198 206 215 222 222 222 223 226 228 231 236 237 239 247 253 260 267 265 263 265 265 270 276 272 273 281 290 293
202 176 195 210 172 160 158 155 154 143 137 137 141 139 134 132 125 127 130 129 130 130 133 130 130 140 141 140 143 147 150 146 146 146 145 147 150 151 155 160 165 169 173 176 180 185 186 185 185 186 186 186 187 188 188 189 189 191 192 193 194 194 197 198 199 200 198 203 211 217 225 234 239 231 219 222 225 226 231 232 233 238 247 252 255 263 260 259 263 262 272 282 279 278 288 300 302
235 182 195 175 145 146 158 156 145 131 131 133 132 123 124 123 116 124 127 126 136 144 147 145 146 147 141 138 141 145 145 143 145 147 147 150 153 157 162 166 169 173 174 176 182 188 189 188 188 188 189 189 190 192 192 193 194 195 196 198 199 200 203 205 206 211 211 215 223 230 235 238 237 224 214 221 225 229 235 234 235 238 245 248 248 251 252 259 265 266 281 291 290 291 298 307 310
266 211 160 151 139 147 160 152 132 122 121 119 117 115 120 117 121 135 136 139 156 155 151 147 147 147 142 142 144 144 144 145 148 149 151 155 157 161 166 170 172 174 175 178 185 190 191 191 191 190 191 193 194 196 196 197 197 198 200 201 203 205 209 210 212 218 221 223 230 236 238 233 228 223 221 227 232 235 241 240 238 239 244 249 249 249 254 264 269 273 286 292 294 295 299 305 310
242 225 125 131 131 144 157 138 124 122 117 117 120 119 115 111 123 147 142 144 150 146 146 145 144 142 140 141 144 147 149 151 152 153 157 160 161 165 169 172 175 177 177 182 187 190 192 193 194 194 194 197 199 201 202 202 202 203 203 205 208 211 215 215 216 221 226 229 234 239 240 234 228 228 229 234 242 245 249 246 240 243 250 258 263 263 265 269 272 279 287 290 292 294 297 302 306
189 142 111 114 130 142 138 120 117 116 115 120 115 105 105 111 127 147 135 132 135 137 140 140 139 139 139 141 147 150 153 156 159 161 163 166 168 169 171 174 177 179 180 185 189 190 191 194 196 197 199 200 201 204 207 208 208 209 209 211 214 217 221 220 219 225 232 236 237 242 245 242 237 237 237 238 245 253 257 251 244 246 251 259 265 268 268 268 272 281 289 293 295 296 297 300 302
187 144 124 123 130 121 108 107 106 103 107 109 101 96 97 105 111 121 127 128 132 135 137 137 137 140 142 146 151 154 158 162 166 167 168 171 172 171 172 174 176 178 182 186 189 191 191 192 195 197 201 202 203 206 209 211 212 213 215 216 219 221 224 226 226 229 236 240 241 245 246 243 242 244 248 246 246 257 262 256 251 249 252 256 260 266 270 272 277 284 295 299 298 298 301 304 304
193 143 132 124 113 107 107 110 113 110 112 107 100 101 105 106 99 104 127 131 134 136 138 141 141 146 150 152 157 162 167 169 171 170 171 175 174 174 175 175 176 179 183 184 186 191 190 190 195 197 200 201 203 206 209 211 212 214 216 216 219 223 225 228 229 231 235 238 240 243 242 239 240 245 252 249 245 256 264 260 258 257 258 257 257 263 270 276 281 287 297 301 300 300 305 310 307
180 131 122 114 110 111 113 116 119 116 122 121 114 117 118 113 108 117 139 135 137 140 142 148 148 154 159 159 165 169 175 176 176 172 169 174 175 176 179 178 179 180 181 181 184 189 189 190 195 196 197 198 199 204 206 208 209 211 213 213 216 218 220 224 228 230 233 235 239 241 239 236 237 242 249 247 247 257 264 262 262 264 266 263 261 264 268 274 281 285 289 289 292 298 300 302 301
154 125 111 106 111 117 121 125 129 119 125 129 118 116 105 86 113 137 148 142 143 145 148 155 155 161 164 166 169 173 182 179 177 176 170 174 177 178 181 182 181 182 182 183 185 186 188 191 193 193 194 194 197 203 205 206 207 209 210 211 212 213 217 222 226 228 231 235 240 240 238 237 238 241 245 247 250 258 264 264 266 272 277 276 270 268 266 265 272 279 280 281 294 304 302 296 294
140 125 114 110 113 124 132 135 140 126 130 132 111 99 90 95 128 140 144 146 146 146 151 157 156 161 164 167 167 171 184 179 175 178 175 177 180 178 181 185 184 184 186 186 186 186 189 192 190 190 193 196 200 203 206 206 208 210 212 213 212 215 219 222 223 224 231 239 242 240 237 238 240 241 242 246 252 260 266 267 270 277 281 280 277 272 264 259 264 272 277 287 299 306 303 296 291
135 123 119 118 116 140 149 144 139 125 140 143 116 102 149 129 141 143 143 145 144 146 153 154 152 158 163 165 165 170 179 176 170 174 176 176 180 180 181 184 185 185 186 185 185 186 188 190 189 189 192 198 202 203 207 209 211 212 214 215 215 219 221 223 225 226 234 241 242 241 238 240 243 242 244 249 255 263 267 268 272 275 277 275 277 277 273 273 278 282 285 294 301 302 300 300 296
134 116 102 115 130 174 173 152 134 127 156 147 111 124 182 154 150 148 147 148 146 151 156 153 153 158 164 165 165 173 177 177 172 174 177 172 175 182 181 181 183 185 185 184 187 187 187 188 189 189 190 195 200 203 207 211 212 211 213 216 217 221 223 225 228 230 236 239 241 242 242 244 242 241 245 251 258 264 266 267 270 274 275 276 280 283 285 288 291 292 296 301 303 299 299 303 301
127 124 125 125 144 192 187 157 140 136 160 139 108 125 173 161 161 156 152 153 149 154 158 155 158 162 166 169 168 176 187 181 174 176 183 174 170 179 183 182 182 183 184 186 188 187 188 189 191 192 193 194 197 201 205 207 208 208 213 217 221 225 226 227 229 230 235 241 243 241 242 244 240 239 245 251 254 258 261 265 272 278 278 276 275 276 282 288 291 294 297 298 296 298 306 308 304
40 121 159 158 152 177 176 171 154 142 148 154 128 137 168 168 168 163 157 157 153 156 160 156 160 165 167 171 171 173 184 183 173 175 181 176 167 172 179 182 183 184 185 185 186 187 189 190 192 194 196 197 198 201 202 205 209 211 214 217 221 225 225 230 233 228 231 238 239 238 240 240 239 242 247 250 254 260 265 270 278 280 276 274 276 281 288 293 295 298 303 301 290 294 304 302 298
237 90 142 157 155 167 170 183 168 148 149 168 143 139 166 172 166 164 161 159 156 161 163 158 162 166 171 175 173 173 178 182 179 173 177 177 173 173 175 178 183 186 185 185 185 186 189 191 193 195 198 199 200 202 202 206 213 213 214 217 219 220 222 229 231 225 229 236 236 237 238 236 241 248 250 253 261 272 277 278 282 281 284 293 301 309 312 311 313 315 321 322 303 292 296 297 296
170 148 131 146 161 179 182 174 173 158 147 148 141 142 160 163 164 165 162 159 159 168 164 159 164 166 175 177 173 177 178 183 188 178 177 178 179 181 179 174 177 182 183 185 186 187 190 191 192 195 199 200 201 203 202 206 211 210 213 218 220 222 221 220 222 226 236 244 240 236 233 238 252 255 255 259 267 280 289 303 318 321 320 318 319 326 329 327 330 331 332 336 326 306 301 304 306
178 172 151 159 169 196 196 173 178 160 140 149 153 151 158 162 169 169 165 161 161 171 167 160 168 170 177 179 177 181 181 187 192 184 179 179 180 182 183 177 174 177 180 183 184 187 189 189 191 196 200 201 201 201 201 205 209 208 212 219 224 228 227 225 229 236 245 249 247 245 241 249 259 256 261 267 271 291 321 342 342 335 325 317 318 325 329 328 329 329 327 326 322 315 310 312 314
203 179 162 172 170 198 201 179 184 155 134 166 161 150 161 167 175 175 169 166 165 173 172 166 172 175 178 179 178 182 186 187 182 181 181 180 179 179 181 181 177 177 180 182 182 184 187 187 189 194 198 200 199 198 199 204 208 209 213 220 225 227 229 233 236 241 246 246 248 251 248 248 247 245 251 246 261 302 321 325 323 319 311 307 310 315 321 323 321 319 315 310 306 304 306 310 315
233 199 179 189 181 198 206 179 178 153 127 170 159 149 166 172 176 177 170 172 176 178 176 172 175 178 179 179 180 181 181 172 164 170 174 173 173 175 177 177 177 178 180 183 184 183 186 187 188 191 194 197 200 201 202 206 210 210 212 218 222 225 229 236 240 241 241 237 234 233 233 232 220 186 195 245 294 305 310 314 313 312 307 304 305 307 313 313 312 314 309 304 302 297 296 303 311
234 215 173 196 199 183 228 196 170 157 126 162 162 154 172 180 177 178 175 179 184 183 180 176 175 176 179 179 179 178 171 164 164 163 167 167 166 169 173 173 176 178 179 184 186 187 187 189 192 193 195 198 202 205 207 209 211 212 216 220 222 225 233 241 243 242 236 231 227 222 222 212 178 154 216 261 285 287 298 306 310 316 312 308 305 306 312 314 323 327 315 307 309 307 301 309 321
236 227 175 197 198 162 221 216 172 165 137 159 164 156 174 182 180 184 183 181 182 186 185 178 175 176 179 180 175 174 172 170 171 167 167 168 166 167 171 174 177 178 180 183 185 187 189 193 196 197 198 200 202 204 207 209 210 212 218 223 225 229 241 249 244 239 238 233 222 214 208 196 187 188 191 192 206 217 202 255 321 337 345 331 326 326 324 337 355 347 330 319 313 311 312 323 339
229 216 197 191 192 191 207 188 154 111 114 151 146 127 184 189 187 193 189 183 181 183 184 180 181 181 178 177 175 175 175 173 173 172 169 170 171 172 174 177 180 181 183 186 188 189 192 196 199 198 198 201 203 203 204 207 209 211 213 214 220 225 227 226 209 199 203 198 180 172 175 183 184 169 158 158 144 136 124 87 323 332 4 344 346 352 348 8 18 10 1 360 334 318 323 332 344
245 221 203 191 199 205 196 162 135 90 121 165 144 133 228 219 195 193 186 186 185 181 185 184 185 184 177 175 178 180 178 175 175 174 172 171 174 177 179 180 182 185 188 190 193 194 196 199 197 194 197 202 203 203 204 207 208 210 208 206 210 205 184 169 162 162 166 166 160 159 161 162 161 152 148 151 125 96 64 29 102 140 93 120 95 21 32 37 20 20 26 38 41 13 353 344 347
257 230 200 202 202 189 175 162 153 143 186 188 165 154 199 229 215 204 186 183 189 188 190 189 185 185 182 180 180 181 179 178 177 175 176 175 175 178 181 183 185 188 191 192 194 196 197 198 196 195 198 200 200 201 204 206 208 209 206 205 209 203 186 173 165 161 159 158 155 155 153 153 159 162 164 211 240 262 321 335 146 137 144 140 128 97 79 69 40 36 42 49 50 32 4 347 347
251 230 196 205 185 166 169 167 177 183 152 175 186 128 129 193 219 205 180 177 190 197 195 194 192 188 188 185 182 182 181 180 178 177 178 178 179 180 182 186 188 190 191 191 193 196 197 198 199 199 200 200 200 202 204 206 207 205 201 203 212 212 202 190 180 176 176 175 173 171 170 177 193 208 240 237 218 242 279 246 182 160 167 166 153 150 92 67 62 64 60 54 40 20 350 329 337
243 226 195 195 170 170 174 172 186 177 104 165 218 96 118 220 243 182 172 179 191 202 201 198 197 192 190 188 185 184 183 181 180 179 181 181 182 182 183 186 189 190 191 192 195 196 198 200 200 199 200 202 203 203 204 207 206 202 200 204 207 203 200 194 190 197 207 210 207 200 195 195 195 199 219 208 205 245 244 209 192 188 193 191 173 151 43 18 34 35 51 56 35 10 348 312 318
244 233 200 174 126 166 175 175 176 138 120 189 208 168 145 250 255 169 170 190 199 204 204 201 197 193 193 191 186 185 184 182 183 181 182 184 183 183 183 185 187 189 191 194 196 197 199 200 199 199 202 204 203 202 205 205 203 202 204 203 197 189 188 188 189 196 200 202 201 197 193 190 191 203 196 188 217 264 213 196 193 187 190 110 59 348 1 18 24 25 48 53 34 24 27 348 328
245 257 237 267 15 113 155 155 122 136 191 209 199 194 178 203 242 193 182 201 199 195 200 203 199 194 195 192 185 184 183 183 184 183 183 184 184 182 182 183 185 187 191 194 195 197 198 199 200 200 202 203 202 203 203 202 201 204 203 200 197 192 189 187 185 186 190 195 202 207 206 200 206 219 196 185 225 228 173 180 177 136 340 355 350 338 347 359 7 17 27 12 2 22 14 359 355
227 255 179 235 305 56 83 15 68 171 242 234 198 194 185 204 241 211 208 213 200 187 192 197 196 196 195 191 184 184 184 183 184 183 182 182 182 182 182 184 184 185 189 192 194 197 198 199 200 200 201 202 202 203 202 201 202 203 201 200 201 198 195 195 196 198 200 205 213 215 208 207 220 228 215 214 220 176 160 182 296 310 316 330 324 324 325 332 345 344 344 348 346 341 329 330 340
208 186 105 148 265 350 108 263 196 198 248 245 191 179 188 222 225 205 209 217 206 191 192 193 192 190 189 188 186 185 182 181 184 184 183 182 182 183 184 185 185 185 188 190 193 195 197 198 199 198 199 200 201 201 200 199 199 199 201 203 202 200 200 203 207 209 207 210 214 209 206 213 226 222 213 215 199 181 216 273 288 292 292 287 290 302 302 310 325 316 317 335 341 338 308 298 321
194 185 148 153 167 169 224 231 213 207 253 257 195 170 195 252 246 209 204 209 208 200 194 191 187 182 183 189 186 183 183 183 185 186 186 185 185 185 185 186 186 186 189 190 191 193 195 197 198 198 199 199 199 199 198 197 197 199 203 202 199 198 199 202 205 205 202 205 209 209 214 221 220 213 210 211 213 234 266 270 264 263 259 263 273 276 279 291 300 296 300 314 325 330 314 291 302
204 174 147 159 159 163 212 208 185 200 238 268 239 176 189 211 237 212 199 206 208 198 185 174 178 181 182 187 185 181 185 186 187 189 190 189 186 186 186 186 186 187 188 190 191 192 193 195 196 197 197 196 196 197 198 198 199 201 201 198 196 199 201 202 203 203 203 205 209 213 217 218 215 218 221 225 236 247 247 231 226 239 249 260 268 266 274 284 284 279 281 289 303 313 307 294 290
225 145 119 171 177 159 188 200 186 174 204 258 224 205 208 204 258 245 198 203 200 181 159 154 171 179 175 181 187 186 187 188 190 193 193 191 188 187 187 187 187 187 188 189 190 191 193 194 195 196 195 194 194 196 197 199 200 200 198 197 199 200 202 202 199 200 203 204 208 211 209 209 212 212 213 216 222 221 216 218 233 247 253 259 268 276 284 287 282 277 275 276 284 293 296 294 288
215 168 169 209 172 141 133 247 263 90 135 260 243 256 293 296 302 324 117 162 171 163 166 167 169 169 169 181 190 188 190 192 193 194 192 191 189 189 190 188 187 187 188 190 191 192 193 194 194 194 193 192 193 196 198 199 199 198 197 199 200 200 202 202 198 198 201 202 207 209 206 208 207 200 203 208 211 217 225 235 247 257 257 256 264 276 289 290 283 278 274 273 277 286 290 289 285
149 202 211 202 143 115 108 171 321 54 155 275 297 258 283 276 272 326 80 144 172 172 177 174 165 165 173 183 188 191 195 194 194 195 192 190 190 191 191 190 190 190 190 191 192 193 194 194 194 192 190 191 194 197 198 198 198 198 198 199 199 201 204 205 203 201 200 202 206 205 204 206 202 200 207 211 215 226 236 245 258 266 262 259 262 265 278 288 280 273 270 268 274 284 285 281 278
149 183 193 161 156 194 127 161 179 109 195 276 303 277 255 197 231 268 175 181 184 181 180 171 165 171 177 182 187 193 196 194 195 196 193 190 191 192 192 192 193 193 193 194 193 193 193 194 194 192 192 193 195 197 198 198 199 199 199 200 201 203 205 207 206 201 197 199 202 202 204 207 206 208 213 214 223 236 243 251 261 265 260 261 267 265 267 274 275 274 270 268 275 280 277 272 270
160 143 166 180 171 175 183 169 161 166 192 227 279 291 270 224 218 211 207 200 183 178 179 175 176 180 182 181 184 192 195 194 196 196 193 191 192 194 193 194 194 195 195 195 192 192 193 194 194 193 193 193 195 197 197 197 199 199 199 201 202 204 206 207 205 201 197 199 202 205 209 213 213 214 218 225 236 242 245 253 257 259 260 262 269 272 269 269 270 272 270 271 276 277 271 267 265
173 148 179 217 195 140 173 197 148 145 156 184 221 258 267 251 212 198 207 200 180 176 175 181 186 184 183 181 181 188 193 193 196 196 194 193 193 195 196 196 196 195 195 194 192 193 194 194 193 192 192 192 195 196 196 196 197 198 199 200 203 205 205 205 204 203 203 202 204 210 216 219 217 218 226 238 246 246 249 257 260 262 267 269 273 275 274 271 269 268 268 271 276 277 273 268 266
170 168 185 193 166 126 157 241 263 138 150 174 184 221 262 261 226 206 189 165 172 179 176 183 188 184 185 186 182 184 188 192 197 197 194 193 194 196 197 197 195 194 194 194 194 195 194 194 193 192 191 193 195 195 195 196 196 198 201 202 203 204 204 205 205 207 207 205 208 214 219 219 218 221 232 242 247 248 253 260 264 267 270 273 276 276 275 273 270 270 269 271 275 276 275 271 266
Height
764 766 766 768 769 770 772 774 792 796 796 808 800 799 796 784 786 792 797 794 796 794 784 784 784 786 793 803 809 809 810 812 815 822 829 819 812 817 816 818 820 820 822 822 825 827 827 828 828 828 828 828 828 829 832 833 834 835 835 837 838 839 840 841 842 843 844 845 846 846 847 847 848 848 849 849 850 851 851 851 851 851 852 852 852 852 852 852 853 853 853 853 853 853 853 853 853
764 766 765 768 768 773 777 775 798 805 802 814 803 798 793 783 790 797 799 796 796 792 783 785 787 789 793 797 800 804 812 811 807 809 812 812 815 818 817 819 819 820 822 823 826 828 829 829 829 830 831 831 832 832 833 834 835 835 836 838 840 840 841 842 843 844 845 846 846 846 847 847 848 848 849 849 850 850 851 851 851 852 852 852 852 852 853 853 853 853 853 853 853 853 853 853 853
764 765 766 769 768 772 775 779 800 808 811 819 807 795 789 792 799 798 795 792 790 785 784 786 790 793 795 801 803 809 818 812 806 807 811 814 815 817 819 819 819 821 822 824 826 828 830 830 831 832 833 834 835 836 836 836 836 837 838 839 840 841 841 843 844 845 846 846 846 846 847 847 848 848 849 849 850 850 851 851 851 851 852 852 852 852 853 853 853 853 853 853 853 853 853 853 853
764 765 766 767 771 776 781 792 800 804 813 816 810 797 790 797 798 794 791 788 786 783 787 789 795 795 795 809 810 811 818 814 809 809 812 815 815 817 819 820 821 822 823 825 827 828 829 831 832 833 834 835 836 837 837 837 837 838 839 840 841 841 842 843 844 845 846 846 847 847 847 848 848 849 850 850 851 851 851 852 852 852 852 852 852 852 853 853 853 853 853 853 853 853 853 853 853
763 765 765 766 776 779 783 795 795 801 809 806 809 800 790 793 792 793 789 786 785 785 788 790 800 798 796 806 807 814 818 814 812 810 812 815 816 818 819 821 822 822 825 826 827 829 829 831 832 832 833 834 835 836 837 838 838 839 840 841 841 842 843 844 845 846 847 847 847 848 848 849 849 850 850 850 851 851 852 852 852 852 852 853 853 853 853 853 853 854 854 853 853 853 853 853 853
761 764 764 766 771 770 783 798 798 801 796 790 801 798 790 789 789 792 789 788 786 786 788 790 799 801 805 807 805 812 812 812 813 811 812 814 817 819 820 822 823 824 826 826 828 829 830 831 832 833 833 834 835 836 837 838 838 839 840 841 842 842 843 844 846 847 847 848 848 849 849 850 850 850 851 851 851 851 852 852 852 852 852 853 853 853 853 854 854 854 854 853 853 853 853 853 853
759 765 766 772 772 770 792 803 799 801 789 782 792 792 789 788 787 790 792 794 794 792 790 794 795 801 814 811 810 811 807 811 810 812 813 815 818 819 821 822 824 825 826 828 828 829 831 832 832 833 833 834 835 836 837 838 839 840 841 841 842 843 844 846 847 848 848 849 849 849 850 850 851 851 851 852 852 852 852 852 852 852 853 853 853 853 853 854 854 854 853 853 853 852 852 852 853
757 764 765 775 784 783 796 798 793 795 786 779 782 784 785 785 785 789 795 797 800 798 795 798 792 803 819 811 817 815 808 812 810 813 815 816 819 820 823 823 824 825 827 828 829 830 831 832 833 834 834 835 835 837 838 839 840 840 841 842 843 844 845 847 847 848 848 849 849 850 851 851 852 852 852 853 853 853 853 853 853 853 853 853 854 854 854 854 854 854 853 853 853 852 852 852 852
756 763 765 776 789 792 797 799 794 788 784 781 780 781 781 782 784 789 797 798 799 800 800 799 791 806 822 815 820 816 810 814 813 816 816 818 820 821 823 823 825 825 827 829 829 831 832 833 833 834 835 836 837 838 839 840 841 841 842 843 844 845 846 847 848 849 849 850 850 851 852 852 853 853 853 853 853 853 853 853 853 854 854 854 854 854 854 854 854 854 854 853 853 853 853 852 852
759 762 768 780 790 798 802 800 795 789 785 781 780 780 780 782 785 790 796 800 799 801 802 797 795 807 819 820 822 816 814 816 815 818 818 820 821 822 824 824 825 825 827 829 830 831 832 834 834 835 836 837 838 839 840 840 841 842 843 844 845 846 847 848 848 849 850 851 851 852 852 852 853 853 854 853 854 854 854 854 854 854 854 854 854 854 855 854 855 854 854 853 853 853 853 853 852
766 763 766 784 795 802 805 801 797 792 785 781 782 779 779 781 786 793 797 802 800 803 805 799 805 811 816 822 822 817 815 817 817 819 819 821 822 823 824 825 826 826 827 828 830 831 832 834 835 836 837 838 839 839 840 841 842 843 844 845 846 847 848 849 849 850 851 851 851 852 852 852 853 853 853 853 854 854 854 855 854 855 854 854 854 854 854 854 855 854 854 854 854 853 853 853 852
772 771 771 791 800 799 798 799 798 793 788 786 787 780 776 780 788 797 800 805 803 805 805 801 807 809 818 826 821 818 817 819 819 819 821 822 823 824 825 826 827 827 828 829 830 831 833 834 836 837 837 839 839 840 841 841 843 843 845 846 847 848 849 850 850 851 851 851 851 852 852 852 852 853 853 854 854 854 855 855 854 855 854 855 855 855 855 854 855 854 855 854 854 854 854 854 853
770 774 778 795 797 796 794 795 795 793 795 788 787 779 774 782 790 795 797 802 802 807 805 798 802 805 819 826 820 819 818 819 819 820 822 822 824 825 826 826 827 828 829 830 830 831 833 834 835 837 837 838 839 840 841 842 843 844 845 846 847 848 849 850 850 851 851 851 851 851 852 852 852 853 853 854 854 854 854 854 854 855 855 855 855 855 855 854 855 854 855 854 854 854 854 853 853
762 765 776 793 794 795 793 793 792 795 799 786 780 776 774 783 787 788 792 802 802 802 801 794 796 807 819 823 824 821 817 819 819 821 822 823 825 825 827 827 828 829 829 830 831 832 833 834 835 836 837 838 839 840 841 842 843 845 846 847 848 848 849 850 850 851 851 851 852 852 852 852 853 853 854 854 854 854 854 854 854 855 855 855 855 855 855 854 855 854 854 854 854 854 853 853 852
754 759 771 790 793 795 792 791 790 794 797 781 775 773 776 781 779 785 788 797 802 792 793 795 794 806 817 820 823 818 814 818 819 821 822 824 825 826 828 828 829 829 830 831 831 832 833 834 835 836 837 837 839 840 841 842 844 845 846 847 848 849 849 850 850 851 851 852 852 852 852 852 853 853 854 854 854 855 854 854 854 854 855 855 855 855 855 855 855 854 854 854 853 853 853 852 851
747 757 776 790 794 799 794 789 789 794 791 777 772 770 781 784 774 784 782 784 797 791 791 799 794 798 809 811 813 811 812 817 818 821 822 824 826 827 829 829 831 830 831 832 832 833 833 834 835 836 837 837 839 840 841 842 844 845 846 847 848 849 849 850 850 851 851 852 852 852 853 852 853 853 853 854 854 854 854 854 854 854 854 854 854 854 854 854 854 854 854 853 853 853 852 851 851
745 761 784 794 795 799 792 788 791 791 784 775 772 771 784 789 776 777 776 779 793 796 795 798 795 794 801 806 807 808 812 816 818 821 822 824 826 827 829 830 831 831 833 833 833 834 834 835 835 836 837 837 839 840 841 842 844 845 846 847 847 848 849 850 850 851 851 851 852 852 852 853 853 853 853 853 853 854 854 854 854 854 854 854 854 854 854 854 853 853 853 853 852 852 852 851 850
754 772 788 795 795 791 782 782 781 778 779 777 774 773 781 788 784 779 782 790 794 798 801 799 798 798 800 803 807 810 813 815 817 820 821 823 825 827 829 830 831 831 833 833 834 834 834 835 835 836 837 838 839 840 841 842 844 845 846 846 847 848 848 850 850 850 851 851 852 852 852 852 853 853 853 853 853 853 853 853 854 854 854 854 854 853 853 853 853 852 852 852 851 851 851 850 850
759 773 785 789 784 777 767 769 769 769 776 776 773 772 776 782 783 781 791 801 798 804 808 804 805 805 804 804 807 811 812 815 817 819 821 822 824 826 828 829 830 831 832 833 834 834 834 835 835 836 836 838 839 840 841 842 844 844 845 846 846 848 848 849 850 850 851 851 851 851 852 852 852 853 853 853 853 853 853 853 853 853 853 853 853 853 853 852 852 852 851 851 850 850 850 849 849
755 766 781 778 768 766 761 761 762 762 766 772 774 771 773 777 777 781 793 802 802 806 809 807 811 809 807 806 807 810 812 815 817 819 821 822 824 825 827 828 829 830 831 832 833 834 834 835 835 836 837 838 839 840 841 842 843 844 845 846 847 848 848 849 849 850 850 850 851 851 852 852 852 852 852 853 853 853 853 852 852 852 853 853 853 852 852 851 851 851 850 850 850 849 849 848 848
753 758 771 764 756 764 761 756 756 756 760 768 773 773 777 775 775 783 793 806 810 804 799 800 805 805 805 806 807 810 812 814 817 819 821 822 824 825 826 827 828 829 830 832 832 833 833 834 835 836 837 838 839 840 841 842 843 844 845 846 847 847 848 848 849 849 850 850 850 851 851 851 852 852 852 852 852 852 852 852 852 852 852 852 852 852 851 851 850 850 850 850 849 849 848 847 847
753 752 753 751 752 763 758 750 753 755 759 766 772 777 778 774 779 785 789 804 808 798 794 792 795 797 799 802 806 809 811 814 816 819 821 822 824 825 826 827 828 829 831 832 832 832 833 834 835 836 837 838 839 840 840 842 843 844 845 845 846 847 847 847 848 848 849 850 850 851 851 851 851 851 852 852 852 852 851 852 852 852 851 851 851 851 850 850 850 850 850 849 849 848 847 847 847
757 755 747 747 750 757 754 749 753 754 761 770 773 773 772 778 787 785 786 794 793 788 789 790 792 794 796 800 803 808 810 813 815 817 819 821 823 824 825 827 828 829 830 831 831 832 833 834 835 836 837 838 839 840 840 841 842 843 844 845 845 846 846 847 847 847 848 849 849 850 851 851 851 851 851 851 851 851 851 851 851 851 851 851 850 850 850 850 850 850 849 849 848 848 847 847 846
756 759 749 748 747 750 751 751 754 754 763 768 767 770 774 783 788 785 787 788 785 786 788 789 793 795 798 801 803 806 809 811 814 815 817 819 821 822 823 825 826 828 829 830 831 831 833 833 835 836 836 838 838 839 840 841 842 843 843 844 844 845 846 846 847 847 848 848 849 850 850 850 851 851 851 851 851 850 851 851 851 851 850 850 850 850 850 850 850 850 849 849 848 848 847 846 846
753 756 748 745 747 749 749 752 757 758 764 764 765 776 780 780 781 785 790 787 785 787 789 791 794 797 800 803 805 806 808 811 813 814 816 817 819 821 822 824 825 827 827 828 830 831 832 833 834 835 836 837 838 838 839 840 841 842 842 843 843 845 845 845 846 847 847 848 848 849 849 850 850 850 850 850 850 850 850 850 850 850 850 850 850 850 850 849 850 849 849 848 848 847 846 846 845
748 747 744 745 750 750 751 756 759 761 763 764 773 783 782 777 780 793 792 786 787 788 792 795 796 801 802 804 805 806 808 809 811 813 815 817 819 821 821 823 823 824 825 826 828 829 831 832 833 835 836 836 837 838 838 839 840 841 841 842 843 844 844 845 846 846 847 847 847 848 849 849 849 849 849 849 849 849 849 849 849 850 850 850 849 849 849 849 849 849 848 848 847 846 846 846 845
739 740 741 745 752 751 753 761 761 761 765 766 777 787 784 776 784 803 797 785 788 791 796 797 799 804 804 805 805 806 808 808 810 812 814 816 818 819 820 821 822 822 824 825 826 827 829 831 832 833 834 836 836 837 838 838 839 840 840 841 842 842 843 844 845 845 846 846 846 847 847 848 848 848 848 848 848 848 848 848 849 849 849 849 849 848 848 848 848 848 847 847 846 845 845 845 844
734 738 745 749 752 754 756 762 763 764 771 767 771 785 785 781 790 801 794 787 789 793 799 799 801 804 803 805 805 806 807 807 810 810 812 815 815 817 818 819 820 822 823 823 824 826 827 829 830 832 833 834 835 836 837 837 838 839 840 840 841 842 843 843 844 844 844 845 845 846 846 847 847 847 847 847 847 848 847 847 848 848 848 848 848 848 847 847 846 846 846 845 845 844 844 843 843
735 736 753 761 758 764 761 761 762 764 774 766 768 793 798 794 797 794 788 788 790 794 799 801 802 804 804 805 805 806 806 806 808 809 810 812 813 814 816 817 818 820 821 822 823 825 826 827 829 830 831 833 834 835 836 836 837 838 839 839 840 841 842 842 842 843 843 844 844 845 845 846 846 846 846 846 846 846 846 846 847 846 847 847 846 846 845 845 845 845 844 844 844 843 842 841 841
739 739 755 767 774 778 764 759 761 763 772 760 768 811 817 802 797 790 787 788 792 798 800 801 803 803 803 803 805 806 804 805 806 806 808 809 811 812 814 816 816 818 820 821 823 823 825 826 828 829 830 832 832 834 834 835 836 836 837 838 839 840 840 841 841 842 842 843 843 843 844 844 845 845 845 845 845 845 845 845 845 845 845 845 845 844 844 843 843 844 843 843 843 842 841 840 840
745 751 758 768 785 786 764 757 763 769 773 757 770 815 820 803 797 789 786 787 792 800 800 800 802 802 803 802 804 805 803 803 803 804 806 807 809 811 812 814 815 817 818 820 822 822 824 825 827 828 829 830 831 832 833 833 834 835 836 837 838 839 839 840 840 841 841 842 842 842 843 843 843 844 844 844 844 844 844 844 844 844 844 844 844 843 843 843 843 843 842 842 841 841 840 839 839
748 764 775 775 781 782 767 757 759 771 775 761 776 813 816 802 796 787 784 787 791 799 800 800 802 802 803 803 803 805 803 802 803 803 805 806 808 809 811 812 814 816 816 819 821 822 824 824 826 827 828 829 830 831 832 833 834 834 836 836 837 838 838 839 839 840 840 841 841 841 842 842 842 842 843 843 842 842 843 843 842 843 843 843 843 842 842 842 842 841 841 841 840 839 839 838 838
756 766 783 781 779 783 778 764 753 760 773 771 779 805 812 801 792 786 783 786 790 797 800 800 802 802 802 803 803 804 804 803 803 803 803 805 806 808 810 811 813 814 815 817 819 821 823 824 825 826 827 828 829 831 832 832 833 834 835 835 836 837 837 838 838 839 839 839 840 840 840 841 841 841 841 841 841 842 842 842 842 842 842 842 841 841 841 841 840 840 839 839 839 838 838 837 837
769 768 777 777 776 782 783 774 759 754 769 779 780 793 802 795 788 786 783 784 790 795 799 799 800 801 801 801 802 803 804 804 802 801 802 804 805 807 808 810 811 812 814 816 818 819 821 822 823 824 825 827 828 830 831 832 833 833 834 835 835 836 836 837 837 837 838 838 838 839 839 840 841 840 840 841 841 841 841 841 841 841 841 841 840 840 840 840 839 839 838 838 837 837 837 836 836
774 772 776 778 775 778 780 775 763 758 770 781 787 794 796 792 787 786 783 783 790 794 795 797 798 800 801 800 801 802 802 802 800 799 801 802 803 805 807 808 810 811 813 815 816 818 819 821 822 823 824 825 827 829 830 831 832 832 833 834 834 835 835 836 836 836 837 837 837 838 838 839 839 840 840 840 840 841 840 840 840 840 840 840 840 839 839 839 838 838 837 837 837 836 836 835 835
765 763 768 776 776 776 771 764 756 756 773 783 786 792 794 793 790 786 783 782 788 792 792 795 798 798 799 799 800 800 801 800 798 798 799 800 802 803 805 807 808 810 812 814 815 817 818 820 821 822 823 824 826 828 829 830 830 831 832 832 833 834 835 835 836 836 836 836 837 837 838 838 838 839 839 840 840 840 840 839 839 839 839 839 839 839 839 838 838 837 837 836 836 836 836 835 835
758 759 763 767 772 774 764 758 751 749 772 784 779 785 790 789 788 783 781 782 786 791 792 794 796 797 797 798 798 798 798 797 795 797 798 799 800 802 804 806 807 809 811 812 814 815 817 818 820 821 822 824 825 826 827 828 829 830 830 831 832 832 834 834 835 835 835 835 836 836 837 837 838 839 839 839 839 839 839 839 838 839 839 839 839 838 838 838 837 837 836 836 835 835 835 834 834
758 761 764 766 769 770 758 754 752 747 768 784 777 783 789 785 783 780 778 782 785 785 788 791 792 793 793 794 796 795 795 794 794 796 796 797 799 801 803 805 806 807 808 810 812 813 816 817 819 820 821 822 823 824 825 826 827 828 829 829 830 831 832 833 833 834 834 835 835 835 836 837 837 838 838 838 839 838 838 838 838 838 838 838 838 838 838 837 837 836 835 835 834 834 834 834 834
760 761 766 771 767 765 760 753 751 749 765 784 781 785 790 781 778 778 776 778 780 778 778 782 785 788 791 791 792 793 794 794 794 794 795 796 798 799 802 803 805 806 807 809 810 812 814 816 817 818 820 821 822 823 824 825 826 827 828 829 830 831 831 831 832 833 833 834 834 835 835 836 837 837 838 838 838 838 838 838 837 837 837 837 837 837 837 837 836 835 835 834 833 833 833 833 833
760 762 768 773 764 767 771 760 754 751 760 776 780 785 789 783 780 778 773 772 773 774 773 775 778 781 783 784 785 788 791 793 793 793 793 794 796 798 800 802 804 805 806 808 809 811 812 814 816 817 818 820 821 822 823 824 826 827 828 829 830 830 830 830 831 832 832 833 833 834 834 835 836 836 837 837 837 837 837 837 837 837 836 836 836 836 836 836 836 835 834 834 833 832 832 832 832
760 758 762 767 761 762 765 759 757 758 763 768 778 798 799 788 788 784 775 772 773 774 775 776 776 775 776 778 780 782 783 786 789 790 790 792 794 796 797 800 802 804 805 806 808 809 811 812 814 815 817 818 820 821 822 824 825 826 828 828 829 829 829 829 829 830 831 832 833 833 834 834 835 836 836 836 837 837 837 837 837 836 836 836 835 835 836 835 835 835 834 833 833 832 832 832 831
763 754 749 750 752 755 757 758 762 777 788 774 776 813 817 792 789 788 779 779 779 776 776 778 777 775 776 779 780 779 779 780 783 785 787 788 791 793 796 798 800 802 803 805 807 808 810 811 812 814 815 817 819 820 822 823 824 825 826 827 827 828 828 828 828 829 830 831 832 832 833 834 834 835 835 836 836 836 836 836 836 836 835 835 835 835 835 835 835 834 833 833 832 832 832 831 831
766 749 736 737 741 749 755 759 768 786 793 771 765 800 816 801 792 786 780 783 782 778 777 777 776 776 776 777 777 778 778 779 780 782 783 786 788 790 793 795 797 799 801 803 806 807 808 810 811 813 814 815 817 818 820 821 822 823 824 825 826 826 827 828 828 829 830 830 831 832 832 833 834 834 835 835 835 836 836 835 835 835 835 835 835 835 834 834 834 833 833 833 832 832 831 831 830
760 736 727 734 739 746 751 755 767 772 771 770 767 779 803 807 793 780 779 785 786 782 780 777 774 773 773 773 773 774 775 776 778 780 781 783 785 787 790 792 794 796 799 802 804 806 807 808 810 811 812 814 815 817 818 820 821 822 823 823 825 825 826 827 827 828 829 829 830 831 831 832 833 833 834 834 834 835 835 835 835 834 834 834 834 834 834 834 833 833 833 832 832 831 831 831 830
743 724 724 730 734 741 743 749 762 761 769 789 782 774 799 810 790 778 781 787 790 784 778 775 771 770 769 769 769 769 770 771 773 776 778 779 781 784 786 789 792 795 797 800 801 804 805 807 809 810 811 812 814 816 817 818 819 820 822 822 823 824 825 826 826 827 828 828 829 830 830 831 832 832 832 833 833 834 834 834 834 834 834 834 833 833 833 833 833 832 832 832 831 831 830 830 830
724 716 722 725 729 736 739 750 760 763 778 796 786 775 795 807 792 784 788 789 788 780 772 769 766 766 765 765 766 766 767 769 770 771 773 775 777 780 784 787 790 793 795 797 799 802 804 805 807 808 810 811 812 814 815 816 818 819 821 821 822 823 824 824 825 826 827 827 828 829 830 830 830 831 831 831 832 832 833 833 833 833 833 833 833 833 832 832 832 832 831 831 831 830 830 829 829
715 717 726 730 735 739 744 753 759 773 787 786 777 770 782 800 795 784 781 773 767 768 769 767 764 764 763 761 763 764 766 767 768 769 770 773 775 778 781 784 787 790 792 795 797 799 802 803 805 806 808 809 811 812 813 815 816 818 819 820 821 822 823 823 824 824 825 827 828 828 829 829 829 830 830 830 831 831 832 833 833 833 832 832 832 831 832 831 831 831 831 831 830 830 829 829 829
717 726 733 742 750 751 758 764 765 784 791 774 764 762 773 794 789 774 765 750 746 754 760 761 760 760 759 758 760 760 762 764 765 768 769 771 774 776 779 781 783 787 789 792 794 796 799 801 802 804 806 807 809 810 812 813 815 816 818 819 820 821 822 822 823 824 824 825 827 827 828 828 828 829 829 829 829 830 831 831 832 832 831 831 831 831 831 831 831 831 830 830 829 829 829 828 828
724 733 741 758 771 772 780 783 779 787 782 762 756 762 775 781 766 755 752 742 740 743 743 746 749 753 756 756 757 756 758 761 763 765 767 768 770 772 775 778 780 783 785 788 791 793 796 798 799 801 803 805 806 808 809 811 813 814 816 817 818 819 820 821 822 822 823 824 825 826 826 827 827 828 828 828 828 829 830 830 830 830 830 830 830 830 830 830 830 829 829 829 828 828 827 827 827
731 738 746 762 777 788 796 794 789 788 775 756 751 759 774 772 749 739 739 732 730 729 730 735 739 745 751 750 750 753 755 757 759 761 762 763 764 766 769 773 776 779 781 784 787 789 792 795 796 798 800 802 804 806 807 809 810 812 814 815 816 818 819 820 820 821 822 823 824 825 825 826 827 827 828 828 828 828 829 829 829 829 829 829 830 830 830 829 829 829 828 828 827 827 826 826 826
728 727 735 750 761 775 787 785 785 784 771 760 758 762 769 762 739 724 721 718 717 722 726 731 736 740 743 745 748 751 752 753 755 756 756 757 758 761 764 768 771 774 777 780 783 786 788 791 793 794 797 799 801 803 805 806 808 810 811 813 814 816 817 818 819 819 820 821 822 823 824 825 826 826 827 827 827 828 828 828 828 828 828 828 828 829 829 829 828 828 827 827 826 826 825 825 825
724 718 732 745 741 747 763 768 764 765 767 765 761 757 748 738 724 714 715 716 717 724 728 731 737 740 742 748 749 749 750 751 752 753 754 755 756 759 761 764 767 770 773 776 778 781 784 786 789 791 793 796 798 800 801 803 805 807 809 810 812 813 815 815 816 818 819 820 821 822 823 824 824 825 825 826 826 826 826 827 827 827 827 827 827 827 827 827 827 827 827 826 825 825 824 824 824
723 724 734 732 721 727 751 766 757 758 775 770 755 750 740 733 729 718 719 725 724 727 730 731 736 739 743 747 746 746 748 748 748 749 750 752 754 756 758 760 763 766 768 771 773 775 778 780 784 787 790 793 795 796 798 800 803 805 807 808 810 811 812 813 814 815 817 819 820 821 821 822 823 823 824 824 825 825 825 825 825 825 825 825 825 825 825 826 826 826 825 825 824 824 823 823 822
719 731 725 717 720 724 739 764 768 772 786 772 753 754 751 750 746 728 725 733 730 729 729 730 735 739 742 743 742 743 742 742 744 744 745 748 749 752 755 757 759 761 763 765 767 770 773 776 779 782 786 788 790 792 794 797 799 802 804 805 807 809 810 812 812 813 815 817 818 819 820 820 821 822 822 823 823 823 824 824 824 824 823 823 823 823 823 824 824 824 824 823 823 822 821 821 821
702 712 706 714 739 745 744 760 773 781 790 777 761 757 755 754 748 733 732 736 732 730 729 731 736 737 738 739 739 739 739 740 742 742 744 746 747 749 752 754 756 758 759 761 763 766 769 772 775 777 780 783 785 788 790 793 796 798 801 802 805 806 808 809 811 812 813 814 816 817 818 819 819 820 820 821 822 822 822 822 822 822 822 821 821 821 821 822 822 823 822 822 821 820 820 819 819
694 700 703 711 726 738 742 749 757 769 782 782 772 764 757 747 736 730 730 729 727 729 729 731 732 731 731 734 736 737 737 739 739 740 741 741 743 745 747 749 751 753 756 758 761 764 766 768 772 775 778 780 782 785 787 790 793 796 798 800 802 804 805 807 809 810 811 812 813 815 815 817 817 818 819 820 820 820 820 821 821 821 820 820 819 819 819 819 820 820 820 820 819 819 818 817 817
708 714 721 720 718 724 734 739 742 750 768 779 777 773 759 734 723 723 722 721 722 723 725 727 726 725 726 728 730 733 734 735 735 735 736 737 739 741 743 745 748 751 754 757 759 761 763 766 769 772 774 777 779 781 784 787 790 793 795 797 799 801 803 806 807 809 810 810 811 812 813 815 816 817 818 818 819 819 819 819 819 819 818 818 818 817 817 817 818 818 818 818 818 817 816 815 815
705 713 718 720 720 727 742 752 745 737 749 760 765 772 757 724 714 717 713 716 719 717 719 723 722 723 724 724 725 727 729 731 731 730 731 734 735 737 740 743 747 751 753 755 757 759 762 765 767 770 772 773 775 778 781 784 787 790 792 794 797 799 802 804 806 807 808 809 810 810 811 813 814 815 816 817 817 817 817 817 817 817 816 816 816 815 815 815 816 816 816 816 815 815 814 813 813